• Join FlightAware (Why Join?)
  • Login
  • US Flag 
08:57PM EST


 

Airport Tracker/Info


-or-


 

Live Flight TrackerFlight Track Log ✈ AWE3874 ✈ 22-Apr-2013 ✈ KMOB - KCLT

Flight Track Log - Related Links

Times and Time Zones

All times are in EDT time to prevent confusion due to time zone crossing. See the AWE3874 flight status page for this flight to view local times or setup timezone preferences in your user account.

Time Position Orientation Groundspeed Altitude Reporting Facility
EDT Latitude Longitude Course Direction KTS MPH feet Rate Location/Type
03:44PM 30.6656 -88.1767 96° East 236 272 3,000  Level Houston Center
03:45PM 30.7244 -88.1186 40° Northeast 232 267 5,400 2,177 Climbing Houston Center
03:46PM 30.9785 -87.9048 41° Northeast  Level FlightAware Approximate
03:46PM 30.7817 -88.0606 41° Northeast 263 303 7,500  Level Houston Center
03:47PM 31.0521 -87.8215 44° Northeast  Level FlightAware Approximate
03:47PM 30.8428 -87.9969 42° Northeast 289 333 9,500  Level Houston Center
03:48PM 31.1218 -87.7339 52° Northeast  Level FlightAware Approximate
03:48PM 30.9086 -87.9283 42° Northeast 317 365 11,400  Level Houston Center
03:49PM 30.9928 -87.8414 42° Northeast 338 389 13,900 2,160 Climbing Houston Center
03:50PM 31.0642 -87.7667 42° Northeast 345 397 15,900 1,824 Climbing Houston Center
03:51PM 31.1378 -87.6892 42° Northeast 355 409 17,700 1,452 Climbing Houston Center
03:52PM 31.2131 -87.6108 42° Northeast 363 418 18,900 1,355 Climbing Houston Center
03:53PM 31.2906 -87.5286 42° Northeast 372 428 20,500 1,355 Climbing Houston Center
03:54PM 31.3681 -87.4458 42° Northeast 377 434 21,700 1,278 Climbing Houston Center
03:55PM 31.4386 -87.3781 39° Northeast 370 426 22,800 736 Climbing Atlanta Center
03:56PM 31.5042 -87.2708 54° Northeast 387 445 23,000 300 Climbing Atlanta Center
03:57PM 31.5594 -87.1461 62° Northeast 408 470 23,400 500 Climbing Atlanta Center
03:58PM 31.6147 -87.0236 62° Northeast 413 475 24,000 800 Climbing Atlanta Center
03:59PM 31.6761 -86.8889 62° Northeast 419 482 25,000 1,100 Climbing Atlanta Center
04:00PM 31.7311 -86.7639 63° Northeast 419 482 26,200 1,000 Climbing Atlanta Center
04:01PM 31.7861 -86.6408 62° Northeast 424 488 27,000 800 Climbing Atlanta Center
04:02PM 31.8450 -86.5156 61° Northeast 424 488 27,800 750 Climbing Atlanta Center
04:03PM 31.9017 -86.3850 63° Northeast 424 488 28,500 900 Climbing Atlanta Center
04:04PM 31.9606 -86.2542 62° Northeast 435 501 29,600 950 Climbing Atlanta Center
04:05PM 32.0128 -86.1381 62° Northeast 440 506 30,400 750 Climbing Atlanta Center
04:06PM 32.0711 -86.0144 61° Northeast 440 506 31,100 650 Climbing Atlanta Center
04:07PM 32.1272 -85.8856 63° Northeast 435 501 31,700 600 Climbing Atlanta Center
04:08PM 32.1856 -85.7494 63° Northeast 440 506 32,300 550 Climbing Atlanta Center
04:09PM 32.2478 -85.6181 61° Northeast 447 514 32,800 350 Climbing Atlanta Center
04:10PM 32.3039 -85.4839 64° Northeast 447 514 33,000 100 Climbing Atlanta Center
04:11PM 32.3636 -85.3494 62° Northeast 447 514 33,000  Level Atlanta Center
04:12PM 32.4236 -85.2150 62° Northeast 447 514 33,000  Level Atlanta Center
04:13PM 32.4811 -85.0803 63° Northeast 447 514 33,000  Level Atlanta Center
04:14PM 32.5447 -84.9506 60° Northeast 447 514 33,000  Level Atlanta Center
04:15PM 32.5978 -84.8203 64° Northeast 447 514 33,000  Level Atlanta Center
04:16PM 32.6550 -84.6878 63° Northeast 441 507 33,000  Level Atlanta Center
04:17PM 32.7119 -84.5572 63° Northeast 441 507 33,000  Level Atlanta Center
04:18PM 32.7689 -84.4242 63° Northeast 441 507 33,000  Level Atlanta Center
04:19PM 32.8297 -84.2786 64° Northeast 446 513 33,000  Level Atlanta Center
04:20PM 32.8819 -84.1625 62° Northeast 440 506 33,000  Level Atlanta Center
04:21PM 32.9364 -84.0289 64° Northeast 440 506 33,000  Level Atlanta Center
04:22PM 32.9947 -83.8953 62° Northeast 445 512 33,000  Level Atlanta Center
04:23PM 33.0508 -83.7589 64° Northeast 445 512 33,000  Level Atlanta Center
04:24PM 33.1089 -83.6247 63° Northeast 445 512 33,000  Level Atlanta Center
04:25PM 33.1628 -83.4928 64° Northeast 445 512 33,000  Level Atlanta Center
04:26PM 33.2203 -83.3536 64° Northeast 450 518 33,000  Level Atlanta Center
04:27PM 33.2758 -83.2164 64° Northeast 450 518 33,000  Level Atlanta Center
04:28PM 33.3356 -83.0792 62° Northeast 450 518 33,000  Level Atlanta Center
04:29PM 33.3928 -82.9417 63° Northeast 450 518 33,000 -250 Level Atlanta Center
04:30PM 33.4458 -82.8039 65° Northeast 455 524 32,500 -1,650 Descending Atlanta Center
04:31PM 33.5089 -82.6536 63° Northeast 455 524 29,700 -2,650 Descending Atlanta Center
04:32PM 33.5636 -82.5181 64° Northeast 455 524 27,200 -2,450 Descending Atlanta Center
04:33PM 33.6183 -82.3875 63° Northeast 437 503 24,800 -1,600 Descending Atlanta Center
04:34PM 33.6606 -82.2742 66° East 421 484 24,000 -400 Descending Atlanta Center
04:35PM 33.7447 -82.1800 43° Northeast 410 472 24,000  Level Atlanta Center
04:36PM 33.8522 -82.1153 27° Northeast 412 474 24,000  Level Atlanta Center
04:37PM 33.9575 -82.0503 27° Northeast 417 480 24,000  Level Atlanta Center
04:38PM 34.0631 -81.9825 28° Northeast 417 480 24,000 -300 Level Atlanta Center
04:39PM 34.1828 -81.9069 28° Northeast 428 493 23,400 -1,800 Descending Atlanta Center
04:40PM 34.2839 -81.8389 29° Northeast 428 493 20,400 -2,750 Descending Atlanta Center
04:41PM 34.3808 -81.7761 28° Northeast 417 480 17,900 -2,450 Descending Atlanta Center
04:42PM 34.4756 -81.7106 30° Northeast 395 455 15,500 -2,449 Descending Atlanta Center
04:43PM 34.5314 -81.6814 23° Northeast 353 406 13,900 -2,500 Descending Atlanta Center
04:43PM 34.5622 -81.6578 32° Northeast 369 425 13,000 -2,625 Descending Atlanta Center
04:43PM 34.6033 -81.6314 28° Northeast 339 390 11,800 -2,000 Descending Atlanta Center
04:44PM 34.6447 -81.6075 25° Northeast 343 395 11,000 -873 Descending Atlanta Center
04:44PM 34.6694 -81.5914 28° Northeast 314 361 11,000  Level Atlanta Center
04:45PM 34.7167 -81.5547 33° Northeast 311 358 11,000  Level Atlanta Center
04:45PM 34.7475 -81.5286 35° Northeast 292 336 11,000  Level Atlanta Center
04:46PM 34.7778 -81.4872 48° Northeast 296 341 11,000  Level Atlanta Center
04:46PM 34.8064 -81.4533 44° Northeast 299 344 11,000  Level Atlanta Center
04:47PM 34.8347 -81.4144 48° Northeast 296 341 11,000 -197 Level Atlanta Center
04:47PM 34.8589 -81.3758 53° Northeast 300 345 10,800 -1,000 Descending Atlanta Center
04:48PM 34.8683 -81.3250 77° East 291 335 10,000 -1,574 Descending Atlanta Center
04:49PM 34.8756 -81.2739 80° East 289 333 9,200 -1,200 Descending Atlanta Center
04:49PM 34.8811 -81.2408 78° East 286 329 8,800 -1,309 Descending Atlanta Center
04:49PM 34.8903 -81.1950 76° East 282 325 8,000 -1,600 Descending Atlanta Center
04:50PM 34.8933 -81.1467 86° East 281 323 7,200 -896 Descending Atlanta Center
04:51PM 34.8900 -81.0936 94° East 250 288 7,000 -300 Descending Atlanta Center
04:51PM 34.8853 -81.0636 101° East 259 298 6,900 -984 Descending Atlanta Center
04:52PM 34.8861 -81.0128 89° East 227 261 6,000 -1,300 Descending Atlanta Center
04:52PM 34.8958 -80.9897 63° Northeast 230 265 5,600 -984 Descending Atlanta Center
04:53PM 34.9372 -80.9781 13° North 224 258 5,000 -400 Descending Atlanta Center
04:53PM 34.9808 -80.9614 17° North 185 213 5,000 -414 Level Atlanta Center
04:55PM 35.0328 -80.9542 North 168 193 4,200 -787 Descending Atlanta Center